Precipitable_Water
0.66 0.58 0.54 0.60 0.62 0.62 0.60 0.57 0.54 0.57 0.63 0.61 0.63 0.66 0.71 0.80 0.81 0.79 0.82 0.87 0.86 0.88 1.05 1.15 1.26 1.34 1.35 1.43 1.43 1.47 1.38 1.32 1.33 1.31 1.29 1.40 1.36 1.36 1.28 1.16 1.18 1.27 1.26 1.29
0.60 0.55 0.64 0.64 0.59 0.55 0.56 0.57 0.56 0.60 0.65 0.64 0.66 0.65 0.73 0.77 0.76 0.80 0.82 0.87 0.91 0.93 1.09 1.15 1.18 1.20 1.23 1.29 1.39 1.44 1.33 1.32 1.30 1.25 1.37 1.45 1.40 1.35 1.22 1.26 1.20 1.15 1.17 1.14
0.47 0.58 0.68 0.60 0.53 0.50 0.57 0.56 0.56 0.57 0.63 0.69 0.65 0.60 0.64 0.75 0.82 0.83 0.86 0.93 1.00 1.02 1.10 1.13 1.05 1.07 1.17 1.20 1.33 1.27 1.25 1.31 1.27 1.30 1.41 1.39 1.38 1.17 1.02 0.97 1.05 1.01 0.99 1.05
0.46 0.54 0.54 0.55 0.52 0.52 0.45 0.56 0.58 0.57 0.56 0.47 0.65 0.42 0.57 0.66 0.70 0.77 0.84 0.91 1.00 1.05 1.17 1.16 1.03 1.06 1.10 1.18 1.24 1.28 1.30 1.26 1.22 1.36 1.28 1.17 0.96 0.81 0.91 0.94 0.93 0.94 0.95 0.96
0.39 0.44 0.46 0.48 0.49 0.54 0.49 0.57 0.57 0.57 0.53 0.50 0.51 0.45 0.51 0.65 0.62 0.74 0.91 0.97 1.03 1.09 1.09 1.08 1.04 1.01 1.10 1.24 1.21 1.24 1.24 1.19 1.19 1.16 1.07 0.93 0.79 0.86 0.88 0.86 0.86 0.91 0.92 0.99
0.42 0.53 0.50 0.46 0.50 0.50 0.54 0.52 0.53 0.54 0.52 0.39 0.46 0.46 0.43 0.53 0.63 0.73 0.90 0.98 1.09 1.11 1.10 1.08 1.08 1.05 1.03 1.15 1.14 1.15 1.11 1.09 1.15 1.07 0.92 0.86 0.87 0.85 0.75 0.75 0.77 0.79 0.86 0.86
0.38 0.40 0.46 0.50 0.47 0.53 0.53 0.46 0.38 0.35 0.35 0.34 0.52 0.46 0.46 0.63 0.76 0.81 0.86 0.98 1.08 1.11 1.13 1.09 1.01 0.93 0.95 1.01 1.08 1.13 1.07 0.99 0.91 0.84 0.88 0.84 0.70 0.71 0.70 0.70 0.68 0.68 0.66 0.61
0.36 0.32 0.49 0.59 0.54 0.49 0.51 0.49 0.40 0.31 0.32 0.36 0.55 0.41 0.50 0.77 0.85 0.90 0.97 1.05 1.12 1.17 1.15 1.03 0.94 0.85 0.85 0.94 0.98 0.94 0.88 0.74 0.77 0.74 0.61 0.66 0.72 0.73 0.72 0.70 0.68 0.58 0.50 0.47
0.43 0.40 0.63 0.65 0.67 0.63 0.57 0.52 0.62 0.50 0.55 0.46 0.48 0.56 0.69 0.80 0.81 0.90 0.92 1.00 1.06 1.09 1.07 0.88 0.75 0.69 0.72 0.76 0.71 0.68 0.62 0.59 0.60 0.65 0.70 0.72 0.70 0.66 0.63 0.55 0.46 0.43 0.47 0.51
0.56 0.42 0.57 0.64 0.73 0.72 0.60 0.65 0.49 0.56 0.40 0.36 0.45 0.50 0.50 0.65 0.74 0.84 0.90 0.94 1.00 1.00 0.87 0.71 0.60 0.57 0.68 0.73 0.70 0.66 0.67 0.66 0.68 0.69 0.70 0.66 0.58 0.53 0.47 0.45 0.43 0.48 0.53 0.54
0.60 0.51 0.47 0.57 0.57 0.58 0.61 0.56 0.62 0.64 0.57 0.42 0.39 0.43 0.66 0.67 0.79 0.81 0.88 0.94 0.95 0.90 0.78 0.60 0.58 0.60 0.67 0.73 0.70 0.71 0.71 0.70 0.69 0.68 0.63 0.54 0.42 0.47 0.48 0.46 0.50 0.51 0.50 0.49
0.68 0.56 0.43 0.49 0.69 0.75 0.74 0.62 0.63 0.54 0.51 0.55 0.51 0.44 0.72 0.76 0.81 0.86 0.85 0.89 0.90 0.84 0.69 0.60 0.60 0.60 0.67 0.70 0.74 0.71 0.68 0.68 0.67 0.64 0.53 0.41 0.46 0.51 0.49 0.49 0.50 0.52 0.43 0.52
0.65 0.54 0.42 0.45 0.57 0.70 0.63 0.71 0.68 0.72 0.70 0.56 0.48 0.46 0.75 0.77 0.76 0.85 0.83 0.81 0.80 0.73 0.64 0.60 0.59 0.56 0.62 0.68 0.72 0.69 0.68 0.68 0.66 0.59 0.45 0.45 0.49 0.51 0.51 0.52 0.52 0.51 0.45 0.54
0.78 0.66 0.57 0.47 0.50 0.59 0.54 0.63 0.66 0.68 0.56 0.57 0.56 0.56 0.65 0.72 0.75 0.79 0.82 0.82 0.75 0.66 0.59 0.58 0.57 0.52 0.58 0.64 0.66 0.66 0.67 0.68 0.64 0.54 0.47 0.49 0.53 0.53 0.54 0.54 0.53 0.47 0.50 0.53
0.71 0.56 0.62 0.63 0.66 0.66 0.63 0.61 0.69 0.68 0.69 0.59 0.63 0.64 0.71 0.77 0.77 0.77 0.79 0.78 0.71 0.65 0.60 0.55 0.57 0.54 0.58 0.62 0.61 0.63 0.65 0.65 0.61 0.53 0.48 0.51 0.57 0.57 0.55 0.56 0.49 0.50 0.53 0.54
0.87 0.64 0.70 0.60 0.68 0.69 0.63 0.66 0.68 0.75 0.73 0.72 0.70 0.67 0.85 0.90 0.84 0.78 0.71 0.64 0.60 0.62 0.62 0.53 0.55 0.57 0.57 0.59 0.60 0.59 0.61 0.59 0.59 0.53 0.48 0.56 0.60 0.58 0.55 0.58 0.50 0.50 0.56 0.57
0.77 0.71 0.66 0.54 0.67 0.65 0.56 0.68 0.70 0.72 0.74 0.73 0.66 0.73 0.86 0.81 0.76 0.69 0.60 0.60 0.59 0.62 0.60 0.58 0.57 0.58 0.59 0.61 0.60 0.54 0.56 0.58 0.56 0.53 0.51 0.58 0.62 0.60 0.56 0.59 0.52 0.49 0.53 0.58
0.73 0.74 0.71 0.60 0.65 0.45 0.70 0.92 0.91 0.81 0.82 0.85 0.80 0.79 0.85 0.82 0.73 0.64 0.59 0.57 0.59 0.57 0.58 0.58 0.59 0.61 0.65 0.63 0.52 0.51 0.54 0.58 0.57 0.54 0.54 0.59 0.63 0.62 0.61 0.59 0.54 0.51 0.53 0.55
0.88 0.77 0.65 0.59 0.59 0.67 0.76 0.84 0.87 0.79 0.74 0.87 0.88 0.83 0.76 0.75 0.69 0.62 0.66 0.63 0.55 0.55 0.58 0.62 0.66 0.65 0.62 0.54 0.54 0.57 0.57 0.65 0.68 0.63 0.56 0.60 0.64 0.65 0.64 0.59 0.54 0.53 0.52 0.55
0.80 0.83 0.68 0.64 0.54 0.50 0.72 0.88 1.04 0.95 0.65 0.80 0.76 0.68 0.66 0.65 0.53 0.70 0.62 0.52 0.57 0.65 0.68 0.66 0.62 0.61 0.58 0.60 0.64 0.64 0.60 0.62 0.66 0.68 0.69 0.66 0.67 0.69 0.69 0.66 0.57 0.54 0.53 0.54
0.52 0.60 0.55 0.60 0.58 0.64 0.77 0.87 0.97 0.63 0.68 0.84 0.82 0.79 0.80 0.70 0.62 0.60 0.58 0.63 0.66 0.66 0.64 0.66 0.67 0.65 0.65 0.70 0.70 0.67 0.67 0.65 0.69 0.74 0.75 0.75 0.74 0.71 0.72 0.73 0.64 0.53 0.52 0.53
0.48 0.43 0.45 0.52 0.49 0.43 0.85 0.80 0.59 0.69 0.75 0.74 0.66 0.62 0.58 0.58 0.58 0.56 0.57 0.59 0.62 0.65 0.68 0.70 0.69 0.69 0.72 0.74 0.73 0.69 0.71 0.74 0.77 0.76 0.79 0.80 0.78 0.76 0.74 0.74 0.69 0.59 0.51 0.51
0.46 0.60 0.54 0.61 0.62 0.83 0.89 0.79 0.77 0.73 0.62 0.61 0.60 0.60 0.59 0.57 0.57 0.60 0.60 0.62 0.64 0.68 0.71 0.73 0.74 0.74 0.74 0.77 0.78 0.72 0.75 0.78 0.79 0.77 0.78 0.82 0.83 0.79 0.78 0.74 0.70 0.62 0.55 0.48
0.68 0.79 0.65 0.68 0.82 0.93 0.89 0.80 0.71 0.71 0.71 0.66 0.64 0.65 0.69 0.64 0.65 0.66 0.68 0.71 0.71 0.74 0.76 0.78 0.77 0.76 0.81 0.82 0.77 0.81 0.86 0.82 0.77 0.79 0.77 0.81 0.82 0.80 0.75 0.73 0.74 0.68 0.60 0.53
0.77 0.78 0.70 0.73 0.84 0.89 0.81 0.78 0.74 0.78 0.80 0.75 0.74 0.73 0.73 0.70 0.69 0.74 0.70 0.69 0.73 0.75 0.86 0.83 0.81 0.83 0.83 0.82 0.90 0.99 0.94 0.88 0.77 0.83 0.80 0.80 0.81 0.80 0.76 0.74 0.72 0.72 0.69 0.65
0.85 0.76 0.66 0.65 0.84 0.80 0.81 0.87 0.86 0.82 0.79 0.81 0.77 0.80 0.79 0.72 0.71 0.70 0.72 0.76 0.77 0.81 0.87 0.85 0.89 0.90 0.87 0.81 0.83 0.95 0.94 0.89 0.78 0.73 0.74 0.77 0.82 0.82 0.80 0.75 0.74 0.79 0.78 0.74
Wind_Speed
7 6 8 8 8 10 9 11 13 13 13 9 10 9 10 10 10 10 11 12 14 14 15 15 14 10 10 7 6 6 6 11 12 14 15 16 19 21 22 24 26 27 29 30
8 9 10 10 10 14 13 13 14 14 10 9 11 12 13 13 12 12 14 15 14 15 14 14 11 10 8 5 5 6 9 12 13 13 15 17 18 21 24 27 29 29 30 31
9 12 11 10 10 9 8 10 11 12 12 11 11 13 13 13 13 15 15 13 13 11 11 11 11 8 7 6 6 7 10 14 14 14 15 16 19 22 24 24 26 26 28 28
9 9 11 12 11 8 10 12 14 14 12 14 12 15 14 13 14 14 14 13 11 11 10 10 10 6 8 7 7 9 12 15 15 14 15 15 19 21 21 24 25 27 27 28
12 10 12 12 15 13 16 13 14 14 13 12 12 12 15 13 11 12 13 12 11 8 8 9 9 9 9 9 10 11 13 15 14 14 14 15 18 20 23 25 26 28 30 32
14 12 12 16 18 17 16 14 12 11 11 12 13 12 16 14 13 12 11 10 6 7 7 8 9 9 10 9 10 11 13 15 14 13 13 16 19 22 24 26 27 29 31 34
12 12 14 13 12 11 10 11 13 14 13 15 14 14 17 14 13 13 12 9 6 6 7 8 9 9 10 10 11 12 13 12 12 12 15 18 20 22 22 25 27 30 34 37
8 11 10 10 11 12 13 12 12 16 15 16 14 16 15 12 12 9 7 5 6 7 8 8 9 10 10 11 10 10 10 12 13 15 16 18 19 21 23 26 30 34 36 39
7 10 11 10 12 13 14 14 14 12 15 14 14 15 17 10 10 10 7 5 6 7 8 8 9 10 9 9 8 9 11 12 13 15 17 17 19 22 26 29 30 33 37 41
10 11 11 12 12 13 13 12 11 12 12 14 12 14 14 11 10 8 9 8 8 8 9 9 9 9 8 8 9 11 12 13 14 15 16 19 22 24 25 27 31 35 38 42
12 12 15 14 13 14 14 13 12 11 10 11 12 12 13 13 10 8 9 9 9 9 10 9 9 9 8 9 10 11 11 12 14 16 18 21 22 22 25 28 31 34 39 40
14 13 14 15 14 14 13 13 11 9 11 11 10 14 11 7 8 9 9 9 10 10 10 10 9 10 9 10 10 10 12 13 15 18 20 21 21 23 26 28 30 34 37 38
14 15 16 17 16 14 12 12 12 11 11 14 10 12 9 8 9 9 9 9 10 11 10 11 11 11 12 12 11 12 13 14 17 20 20 20 21 23 26 26 29 33 34 36
16 16 17 18 17 14 16 16 14 13 11 10 12 13 11 11 10 10 10 11 11 12 12 12 12 12 12 12 12 13 15 17 19 20 20 20 22 23 23 25 29 30 31 33
16 18 16 18 19 18 17 16 16 15 15 13 13 13 13 13 11 11 11 12 13 13 14 14 14 13 13 13 14 15 17 18 19 20 19 21 21 21 21 24 26 28 29 30
14 15 14 15 14 14 14 15 17 16 14 16 15 18 16 11 10 10 12 13 14 15 15 15 14 14 14 15 17 17 19 19 19 19 19 20 20 19 21 23 25 25 26 27
12 12 13 14 12 12 11 11 10 12 12 14 13 11 9 9 12 11 12 14 15 16 16 15 15 15 16 18 19 19 19 19 19 19 19 20 19 19 20 22 23 24 24 24
10 9 8 10 11 9 8 7 9 10 10 9 8 9 11 11 9 10 13 15 16 16 16 16 16 18 20 21 21 20 19 19 19 19 19 19 19 19 20 21 22 22 22 22
10 8 8 7 8 10 7 8 6 7 11 12 13 9 8 8 10 13 15 16 15 14 15 16 18 20 22 21 20 19 20 20 20 20 20 20 19 20 20 21 21 21 20 21
9 8 7 6 8 5 5 5 6 6 8 7 5 5 7 9 12 16 17 14 14 15 16 18 20 20 21 20 20 20 21 21 21 21 21 20 21 21 20 21 21 20 19 20
8 8 6 5 4 5 6 3 2 3 3 4 5 7 10 13 15 17 14 15 16 17 17 18 19 20 20 21 21 22 22 22 23 22 22 22 22 22 21 21 21 20 19 19
7 7 6 5 5 5 4 4 5 5 5 6 9 10 11 12 14 15 15 17 17 18 19 20 20 21 22 23 24 25 24 25 24 24 23 23 23 23 22 22 22 21 20 19
8 6 5 2 5 4 4 5 6 6 7 8 9 11 12 13 14 15 17 19 20 21 22 23 24 24 25 26 27 28 28 27 26 26 26 25 25 24 24 23 23 22 20 20
8 6 7 7 4 6 7 7 8 9 10 11 10 10 13 15 17 19 20 22 23 24 26 25 26 29 30 31 30 30 31 30 29 28 28 27 26 26 25 24 24 23 22 21
8 9 9 6 6 6 6 6 8 12 12 12 13 15 19 19 20 22 25 24 24 24 25 25 27 28 27 28 26 25 27 27 29 31 31 30 28 28 27 27 26 25 24 23
7 7 6 7 7 5 5 7 12 14 13 14 16 18 21 21 22 23 21 21 20 21 22 22 23 24 24 24 24 24 26 26 27 28 29 30 31 30 29 29 29 28 27 26
Wind_Direction
250 245 244 253 266 278 279 277 277 272 297 302 302 296 306 310 303 310 308 314 319 315 321 324 321 323 324 310 298 245 295 310 297 289 288 286 289 294 297 300 303 299 296 295
253 248 243 260 278 286 275 287 286 280 290 294 289 291 298 304 302 307 313 311 309 313 321 330 335 330 324 309 304 269 295 313 307 296 292 290 290 295 299 299 301 301 299 295
239 247 254 264 282 303 277 275 286 274 285 291 288 291 300 302 299 302 305 305 305 307 319 330 335 327 325 305 302 281 306 314 308 301 295 293 294 300 303 305 308 309 308 302
257 259 249 263 270 296 278 284 280 281 279 283 277 286 288 292 301 303 313 313 299 303 313 323 334 330 328 319 310 303 309 317 312 306 302 300 307 308 311 313 311 311 311 309
261 259 258 262 260 284 285 294 287 288 274 281 282 287 286 289 289 301 316 317 304 302 311 321 328 329 327 318 317 314 316 320 318 313 311 310 314 314 316 317 315 313 311 310
265 269 265 265 277 279 280 293 289 287 283 282 279 281 287 277 277 291 301 317 297 303 316 322 325 327 327 322 320 318 321 321 318 317 316 316 318 318 319 320 319 318 316 314
285 275 283 277 277 289 289 301 295 291 284 271 286 290 282 275 279 283 285 283 270 289 303 317 322 322 320 320 316 317 322 328 329 326 322 319 321 323 324 324 322 321 319 317
293 298 293 285 282 278 283 274 277 280 275 279 288 276 288 277 283 285 294 262 252 280 300 306 313 316 319 321 319 324 329 330 328 327 327 327 328 328 328 326 325 324 323 323
298 292 297 290 288 293 290 283 286 289 289 286 279 284 290 280 282 273 267 257 267 275 297 305 312 317 322 326 327 330 333 335 334 334 334 333 330 329 329 330 330 331 331 330
289 296 303 301 294 297 285 279 289 294 275 278 282 285 278 273 273 255 243 250 268 284 294 302 310 316 322 325 327 330 330 331 336 336 334 333 331 331 334 335 335 336 335 334
292 291 291 297 293 284 292 284 290 278 273 269 283 284 283 265 247 244 254 255 261 278 287 296 304 311 314 318 322 328 331 333 335 334 334 333 334 336 337 337 338 339 339 339
300 293 288 283 286 291 284 273 272 262 277 274 274 290 291 254 250 249 252 253 269 279 285 292 297 304 304 308 313 322 327 329 332 333 333 334 336 337 339 339 340 342 342 346
293 294 299 301 301 287 280 268 266 267 273 262 261 282 288 270 272 255 251 268 271 279 285 286 291 298 298 301 305 312 319 323 328 331 333 334 336 337 339 341 342 344 347 350
293 286 278 278 278 280 281 269 259 259 268 260 256 273 280 263 263 257 263 271 276 283 283 283 285 296 298 301 304 307 313 319 324 328 330 332 335 336 339 342 343 347 350 353
290 288 284 284 281 278 276 265 255 257 260 243 267 258 274 259 259 259 267 273 278 283 285 281 281 290 295 302 303 303 308 313 319 323 325 328 331 335 338 341 345 348 351 354
303 294 299 295 287 285 270 265 259 259 253 261 270 273 263 256 256 267 269 273 277 282 284 280 279 285 291 297 301 300 304 308 312 316 319 324 327 331 335 340 344 348 351 354
321 309 304 293 297 289 266 279 271 264 269 262 260 269 255 250 252 264 273 276 279 282 281 276 275 282 289 295 298 298 299 302 305 310 313 319 322 324 330 336 340 344 346 350
335 331 313 300 303 280 280 286 280 266 270 271 257 270 265 255 265 284 290 286 286 284 280 277 276 284 290 294 293 295 297 298 301 305 309 313 316 318 323 330 335 338 342 345
334 338 337 334 306 298 279 300 295 288 280 277 261 269 268 264 277 294 293 293 288 281 279 279 282 287 292 291 290 292 295 296 298 301 304 307 309 313 317 322 328 333 336 340
344 341 341 337 342 333 296 304 292 290 299 294 265 252 261 284 294 294 296 291 287 284 285 285 288 292 292 289 288 291 293 293 295 297 300 302 305 307 311 316 321 324 328 332
344 345 346 351 356 321 325 342 309 359 269 300 296 288 279 288 291 298 292 292 290 289 287 289 292 292 291 292 290 291 292 292 292 295 297 300 301 301 304 309 314 316 318 323
328 332 325 336 324 343 360 9 339 317 313 304 308 305 301 298 299 298 293 294 291 288 289 291 293 295 294 293 290 291 290 289 290 292 294 296 299 298 299 302 308 309 310 313
323 313 313 296 310 331 321 341 332 325 319 316 315 309 306 306 303 301 299 295 293 289 289 293 291 292 295 296 292 289 287 289 287 289 289 292 296 296 295 296 300 303 304 304
315 314 297 305 302 310 317 312 327 332 325 317 314 314 313 308 305 304 304 300 296 293 291 294 298 295 293 295 294 289 286 285 285 285 288 289 290 293 292 293 294 296 297 297
305 316 313 290 277 300 329 328 333 339 326 326 323 317 321 314 309 308 308 304 302 301 300 298 298 304 302 303 301 300 300 292 286 286 285 284 286 288 290 290 291 290 290 289
305 309 309 305 292 286 295 312 335 332 322 325 324 322 324 322 318 318 319 318 315 313 306 306 309 309 310 311 307 306 305 303 298 294 290 285 282 285 286 288 288 287 285 284